Time,TemperatureF,DewpointF,PressureIn,WindDirection,WindDirectionDegrees,WindSpeedMPH,WindSpeedGustMPH,Humidity,HourlyPrecipIn,Conditions,Clouds,dailyrainin,SoftwareType,DateUTC
2013-02-03 00:03:00,69.0,63.0,30.10,East,79,9.0,12.0,80,0.00,,,0.00,,2013-02-03 05:03:00,
2013-02-03 00:12:00,69.0,63.0,30.10,East,79,9.0,12.0,80,0.00,,,0.00,,2013-02-03 05:12:00,
2013-02-03 00:22:00,69.0,62.0,30.09,ESE,116,9.0,12.0,79,0.00,,,0.00,,2013-02-03 05:22:00,
2013-02-03 00:32:00,69.0,62.0,30.09,ENE,73,9.0,11.0,78,0.00,,,0.00,,2013-02-03 05:32:00,
2013-02-03 00:42:00,69.0,62.0,30.09,ENE,73,9.0,11.0,78,0.00,,,0.00,,2013-02-03 05:42:00,
2013-02-03 00:52:00,69.0,63.0,30.09,ENE,74,7.0,11.0,80,0.00,,,0.00,,2013-02-03 05:52:00,
2013-02-03 01:02:00,69.0,63.0,30.08,ENE,71,7.0,11.0,80,0.00,,,0.00,,2013-02-03 06:02:00,
2013-02-03 01:11:00,69.0,63.0,30.08,ENE,71,7.0,11.0,80,0.00,,,0.00,,2013-02-03 06:11:00,
2013-02-03 01:21:00,69.0,63.0,30.07,ENE,62,8.0,11.0,81,0.00,,,0.00,,2013-02-03 06:21:00,
2013-02-03 01:32:00,69.0,63.0,30.07,ENE,69,9.0,12.0,80,0.00,,,0.00,,2013-02-03 06:32:00,
2013-02-03 01:42:00,69.0,63.0,30.07,ENE,69,9.0,12.0,80,0.00,,,0.00,,2013-02-03 06:42:00,
2013-02-03 01:52:00,69.0,63.0,30.06,NE,41,8.0,11.0,80,0.00,,,0.00,,2013-02-03 06:52:00,
2013-02-03 02:01:00,69.0,63.0,30.06,NE,54,8.0,12.0,80,0.00,,,0.00,,2013-02-03 07:01:00,
2013-02-03 02:11:00,69.0,63.0,30.06,NE,54,8.0,12.0,80,0.00,,,0.00,,2013-02-03 07:11:00,
2013-02-03 02:21:00,69.0,63.0,30.06,NE,51,8.0,10.0,81,0.00,,,0.00,,2013-02-03 07:21:00,
2013-02-03 02:31:00,69.0,63.0,30.06,NE,42,7.0,10.0,82,0.00,,,0.00,,2013-02-03 07:31:00,
2013-02-03 02:42:00,69.0,63.0,30.06,NE,42,7.0,10.0,82,0.00,,,0.00,,2013-02-03 07:42:00,
2013-02-03 02:52:00,69.0,63.0,30.05,NE,52,8.0,11.0,82,0.00,,,0.00,,2013-02-03 07:52:00,
2013-02-03 03:01:00,69.0,63.0,30.05,NE,46,8.0,12.0,82,0.00,,,0.00,,2013-02-03 08:01:00,
2013-02-03 03:11:00,69.0,63.0,30.05,NE,46,8.0,12.0,82,0.00,,,0.00,,2013-02-03 08:11:00,
2013-02-03 03:22:00,69.0,63.0,30.04,NE,39,10.0,12.0,81,0.00,,,0.00,,2013-02-03 08:22:00,
2013-02-03 03:32:00,69.0,63.0,30.05,NE,56,11.0,13.0,80,0.00,,,0.00,,2013-02-03 08:32:00,
2013-02-03 03:41:00,69.0,63.0,30.05,NE,56,11.0,13.0,80,0.00,,,0.00,,2013-02-03 08:41:00,
2013-02-03 03:52:00,69.0,63.0,30.05,NNE,27,11.0,13.0,80,0.00,,,0.00,,2013-02-03 08:52:00,
2013-02-03 04:03:00,68.0,62.0,30.05,NNE,22,10.0,13.0,81,0.00,,,0.00,,2013-02-03 09:03:00,
2013-02-03 04:11:00,68.0,62.0,30.05,NNE,22,10.0,13.0,81,0.00,,,0.00,,2013-02-03 09:11:00,
2013-02-03 04:21:00,68.0,61.0,30.05,NE,44,12.0,16.0,79,0.00,,,0.00,,2013-02-03 09:21:00,
2013-02-03 04:31:00,69.0,63.0,30.05,West,278,11.0,15.0,81,0.00,,,0.00,,2013-02-03 09:31:00,
2013-02-03 04:42:00,69.0,63.0,30.05,West,278,11.0,15.0,81,0.00,,,0.00,,2013-02-03 09:42:00,
2013-02-03 04:52:00,68.0,62.0,30.05,NNE,31,12.0,15.0,81,0.00,,,0.00,,2013-02-03 09:52:00,
2013-02-03 05:01:00,68.0,62.0,30.05,NNW,348,10.0,15.0,82,0.00,,,0.00,,2013-02-03 10:01:00,
2013-02-03 05:11:00,68.0,62.0,30.05,NNW,348,10.0,15.0,82,0.00,,,0.00,,2013-02-03 10:11:00,
2013-02-03 05:21:00,67.0,62.0,30.04,NNE,26,14.0,18.0,85,0.00,,,0.00,,2013-02-03 10:21:00,
2013-02-03 05:31:00,67.0,62.0,30.05,NE,35,11.0,15.0,85,0.00,,,0.00,,2013-02-03 10:31:00,
2013-02-03 05:42:00,67.0,62.0,30.05,NE,35,11.0,15.0,85,0.00,,,0.00,,2013-02-03 10:42:00,
2013-02-03 05:53:00,66.0,61.0,30.06,NE,55,14.0,20.0,83,0.00,,,0.00,,2013-02-03 10:53:00,
2013-02-03 06:02:00,67.0,62.0,30.06,NE,44,12.0,19.0,84,0.00,,,0.00,,2013-02-03 11:02:00,
2013-02-03 06:11:00,67.0,62.0,30.06,NE,44,12.0,19.0,84,0.00,,,0.00,,2013-02-03 11:11:00,
2013-02-03 06:22:00,66.0,60.0,30.07,NNW,337,10.0,20.0,82,0.00,,,0.00,,2013-02-03 11:22:00,
2013-02-03 06:32:00,66.0,60.0,30.08,NNE,29,12.0,21.0,81,0.00,,,0.00,,2013-02-03 11:32:00,
2013-02-03 06:42:00,66.0,60.0,30.08,NNE,29,12.0,21.0,81,0.00,,,0.00,,2013-02-03 11:42:00,
2013-02-03 06:52:00,66.0,60.0,30.09,NNE,24,14.0,21.0,82,0.00,,,0.00,,2013-02-03 11:52:00,
2013-02-03 07:02:00,66.0,60.0,30.09,NNE,32,13.0,18.0,82,0.00,,,0.00,,2013-02-03 12:02:00,
2013-02-03 07:12:00,66.0,60.0,30.09,NNE,32,13.0,18.0,82,0.00,,,0.00,,2013-02-03 12:12:00,
2013-02-03 07:22:00,66.0,60.0,30.09,NNW,346,12.0,21.0,82,0.00,,,0.00,,2013-02-03 12:22:00,
2013-02-03 07:32:00,66.0,60.0,30.10,NNW,345,15.0,20.0,82,0.00,,,0.00,,2013-02-03 12:32:00,
2013-02-03 07:42:00,66.0,60.0,30.10,NNW,345,15.0,20.0,82,0.00,,,0.00,,2013-02-03 12:42:00,
2013-02-03 07:53:00,66.0,60.0,30.11,NNE,24,15.0,20.0,82,0.00,,,0.00,,2013-02-03 12:53:00,
2013-02-03 08:03:00,66.0,60.0,30.11,NNW,340,14.0,21.0,81,0.00,,,0.00,,2013-02-03 13:03:00,
2013-02-03 08:11:00,66.0,60.0,30.11,NNE,29,14.0,22.0,80,0.00,,,0.00,,2013-02-03 13:11:00,
2013-02-03 08:22:00,66.0,60.0,30.11,NNE,29,14.0,22.0,80,0.00,,,0.00,,2013-02-03 13:22:00,
2013-02-03 08:32:00,65.0,58.0,30.12,North,357,13.0,21.0,79,0.00,,,0.00,,2013-02-03 13:32:00,
2013-02-03 08:42:00,65.0,58.0,30.12,North,357,13.0,21.0,79,0.00,,,0.00,,2013-02-03 13:42:00,
2013-02-03 08:52:00,66.0,59.0,30.13,NE,37,16.0,23.0,78,0.00,,,0.00,,2013-02-03 13:52:00,
2013-02-03 09:02:00,66.0,59.0,30.13,NNE,28,17.0,21.0,79,0.00,,,0.00,,2013-02-03 14:02:00,
2013-02-03 09:11:00,66.0,59.0,30.13,NNE,28,17.0,21.0,79,0.00,,,0.00,,2013-02-03 14:11:00,
2013-02-03 09:22:00,65.0,59.0,30.13,NNE,31,17.0,23.0,80,0.00,,,0.00,,2013-02-03 14:22:00,
2013-02-03 09:32:00,65.0,59.0,30.14,NNE,17,20.0,23.0,80,0.00,,,0.00,,2013-02-03 14:32:00,
2013-02-03 09:42:00,65.0,59.0,30.14,NNE,17,20.0,23.0,80,0.00,,,0.00,,2013-02-03 14:42:00,
2013-02-03 09:52:00,65.0,59.0,30.14,NE,34,15.0,22.0,81,0.00,,,0.00,,2013-02-03 14:52:00,
2013-02-03 10:03:00,65.0,59.0,30.15,NW,322,17.0,24.0,80,0.00,,,0.00,,2013-02-03 15:03:00,
2013-02-03 10:11:00,65.0,59.0,30.15,NW,322,17.0,24.0,80,0.00,,,0.00,,2013-02-03 15:11:00,
2013-02-03 10:22:00,65.0,59.0,30.15,NW,322,17.0,24.0,80,0.00,,,0.00,,2013-02-03 15:22:00,
2013-02-03 10:33:00,65.0,59.0,30.15,NW,322,17.0,24.0,80,0.00,,,0.00,,2013-02-03 15:33:00,
2013-02-03 10:42:00,65.0,59.0,30.15,NW,322,17.0,24.0,80,0.00,,,0.00,,2013-02-03 15:42:00,